This is the latest recevied weather packets stored in our database for station/object IT9RID. If no packets are shown the sender has not sent any weather packets the latest 10 day(s).
| Time | Temp. | Humidity | Pressure | Rain* | Wind** | Luminosity | Snow |
|---|---|---|---|---|---|---|---|
| 1788063495 | 27.22° C | 39% | 1013.5 hPa | 0 mm | - | - | - |
| 1788062894 | 27.78° C | 38% | 1013.6 hPa | 0 mm | - | - | - |
| 1788062294 | 27.22° C | 39% | 1013.6 hPa | 0 mm | - | - | - |
| 1788061694 | 27.22° C | 39% | 1013.7 hPa | 0 mm | - | - | - |
| 1788061094 | 27.78° C | 38% | 1013.7 hPa | 0 mm | - | - | - |
| 1788060494 | 27.22° C | 39% | 1013.7 hPa | 0 mm | - | - | - |
| 1788059893 | 27.22° C | 39% | 1013.8 hPa | 0 mm | - | - | - |
| 1788059294 | 27.22° C | 39% | 1013.8 hPa | 0 mm | - | - | - |
| 1788058693 | 27.22° C | 39% | 1013.9 hPa | 0 mm | - | - | - |
| 1788058093 | 27.78° C | 39% | 1013.9 hPa | 0 mm | - | - | - |
| 1788057493 | 27.78° C | 38% | 1014.1 hPa | 0 mm | - | - | - |
| 1788056893 | 27.78° C | 38% | 1014.1 hPa | 0 mm | - | - | - |
| 1788056292 | 28.33° C | 37% | 1014.4 hPa | 0 mm | - | - | - |
| 1788055692 | 28.33° C | 35% | 1014.4 hPa | 0 mm | - | - | - |
| 1788055092 | 28.33° C | 34% | 1014.4 hPa | 0 mm | - | - | - |
| 1788054492 | 28.33° C | 35% | 1014.4 hPa | 0 mm | - | - | - |
| 1788053892 | 28.33° C | 36% | 1014.4 hPa | 0 mm | - | - | - |
| 1788053292 | 28.33° C | 36% | 1014.4 hPa | 0 mm | - | - | - |
| 1788052691 | 28.33° C | 35% | 1014.6 hPa | 0 mm | - | - | - |
| 1788052092 | 28.89° C | 33% | 1014.6 hPa | 0 mm | - | - | - |
| 1788051492 | 29.44° C | 33% | 1014.4 hPa | 0 mm | - | - | - |
| 1788050891 | 28.89° C | 34% | 1014.2 hPa | 0 mm | - | - | - |
| 1788050291 | 28.89° C | 34% | 1014 hPa | 0 mm | - | - | - |
| 1788049691 | 28.89° C | 33% | 1013.8 hPa | 0 mm | - | - | - |
| 1788049091 | 28.89° C | 34% | 1013.7 hPa | 0 mm | - | - | - |
* Rain latest hour (hover to see other rain measurements)
** Current wind speed in m/s (hover to see current wind gust speed)